Weather reports worldwide

Advertisment
Sete, France (7641): temperature & dewpoint: 20.03.2019 08:00:00 - 26.03.2019 08:00:00 (CET)Sete, France (7641): wind speed & gusts: 20.03.2019 08:00:00 - 26.03.2019 08:00:00 (CET)Sete, France (7641): wind direction: 20.03.2019 08:00:00 - 26.03.2019 08:00:00 (CET)Sete, France (7641): reduced air pressure: 20.03.2019 08:00:00 - 26.03.2019 08:00:00 (CET)Sete, France (7641): visibility: 20.03.2019 08:00:00 - 26.03.2019 08:00:00 (CET)Sete, France (7641): precipitation: 20.03.2019 08:00:00 - 26.03.2019 08:00:00 (CET)
Date & Time tt [°C] td [°C] ff [km/h] ff [kn] fx [km/h] fx [kn] dd ppp [hPa] vv [km] rr [mm]
26.03.2019 08:00:00 - - - - - - - - - -
26.03.2019 07:00:00 8,2 -3,3 25 13 54 29 NW 1021,9 20 0,0
26.03.2019 06:00:00 8,0 -4,2 14 7 51 28 NW 1021,6 - 0,0
26.03.2019 05:00:00 8,4 -4,1 24 13 45 24 NW 1021,4 - 0,0
26.03.2019 04:00:00 8,6 -4,6 18 10 36 19 NW 1021,7 - 0,0
26.03.2019 03:00:00 8,9 -4,7 20 11 41 22 NNW 1021,3 - 0,0
26.03.2019 02:00:00 9,5 -5,2 20 11 42 23 NW 1020,9 - 0,0
26.03.2019 01:00:00 9,9 -5,7 20 11 40 22 NNW 1020,6 - 0,0
26.03.2019 00:00:00 10,3 -4,5 16 9 36 20 NW 1020,9 - 0,0
25.03.2019 23:00:00 10,8 -4,5 18 10 35 19 NW 1020,7 - 0,0
25.03.2019 22:00:00 11,6 -2,3 16 9 48 26 NNW 1020,6 - 0,0
25.03.2019 21:00:00 12,8 -2,3 28 15 59 32 NNW 1019,4 - 0,0
25.03.2019 20:00:00 14,1 -2,0 26 14 55 30 NNW 1018,2 - 0,0
25.03.2019 19:00:00 16,1 -2,4 27 14 62 34 NNW 1017,3 - 0,0
25.03.2019 18:00:00 17,6 -3,8 21 11 58 31 NW 1016,7 - 0,0
25.03.2019 17:00:00 19,2 -1,9 22 12 59 32 NNW 1016,0 - 0,0
25.03.2019 16:00:00 20,5 0,3 20 11 49 26 NNW 1016,0 - 0,0
25.03.2019 15:00:00 19,9 1,8 17 9 41 22 WNW 1016,5 - 0,0
25.03.2019 14:00:00 18,4 0,9 7 4 41 22 ESE 1017,6 - 0,0
25.03.2019 13:00:00 18,6 0,2 18 10 47 25 NNW 1018,6 12 0,0
25.03.2019 12:00:00 16,7 -1,0 20 11 41 22 WNW 1019,8 - 0,0
25.03.2019 11:00:00 16,4 -1,2 18 10 46 25 NW 1020,7 - 0,0
25.03.2019 10:00:00 15,3 1,8 20 11 56 30 NNW 1021,0 - 0,0
25.03.2019 09:00:00 14,2 2,7 24 13 50 27 N 1021,0 - 0,0
25.03.2019 08:00:00 13,4 3,5 18 10 36 19 N 1020,6 - 0,0
25.03.2019 07:00:00 12,8 3,2 19 11 39 21 NW 1020,5 - 0,0
25.03.2019 06:00:00 13,1 2,3 22 12 34 19 NW 1020,4 - 0,0
25.03.2019 05:00:00 13,1 1,7 15 8 37 20 WNW 1020,5 - 0,0
25.03.2019 04:00:00 14,5 1,0 22 12 40 22 NW 1020,6 - 0,0
25.03.2019 03:00:00 15,0 0,8 20 11 31 17 WNW 1020,8 - 0,0
25.03.2019 02:00:00 15,8 0,0 17 9 30 16 WNW 1021,0 - 0,0
25.03.2019 01:00:00 16,4 -0,4 16 8 21 11 NW 1021,1 - 0,0
25.03.2019 00:00:00 16,5 -0,7 11 6 19 10 NNW 1020,9 - 0,0
24.03.2019 23:00:00 17,3 -0,9 13 7 34 18 NNW 1020,8 - 0,0
24.03.2019 22:00:00 17,9 1,0 14 7 32 18 NW 1020,5 - 0,0
24.03.2019 21:00:00 19,4 2,3 18 10 33 18 NW 1020,2 - 0,0
24.03.2019 20:00:00 19,9 2,7 13 7 30 16 NW 1020,1 - 0,0
24.03.2019 19:00:00 16,3 7,8 16 9 27 15 WSW 1020,0 - 0,0
24.03.2019 18:00:00 18,0 3,8 15 8 26 14 SW 1019,8 - 0,0
24.03.2019 17:00:00 18,1 3,2 13 7 23 13 SSW 1019,8 - 0,0
24.03.2019 16:00:00 19,1 3,7 11 6 20 11 SSW 1020,5 - 0,0
24.03.2019 15:00:00 19,5 2,8 11 6 24 13 S 1021,1 - 0,0
24.03.2019 14:00:00 19,6 1,5 15 8 26 14 SSW 1021,8 - 0,0
24.03.2019 13:00:00 19,5 3,2 14 7 22 12 SW 1022,7 20 0,0
24.03.2019 12:00:00 18,3 4,1 11 6 20 11 SSW 1023,5 - 0,0
24.03.2019 11:00:00 18,6 3,2 8 5 14 8 SSW 1023,6 - 0,0
24.03.2019 10:00:00 18,1 4,3 4 2 9 5 S 1023,9 - 0,0
24.03.2019 09:00:00 16,1 7,0 6 3 - - S 1023,8 - 0,0
24.03.2019 08:00:00 16,0 1,3 2 1 8 4 ENE 1023,3 - 0,0
24.03.2019 07:00:00 14,3 4,0 5 3 9 5 NNE 1023,1 - 0,0
24.03.2019 06:00:00 15,5 0,1 7 4 16 9 N 1023,0 - 0,0
24.03.2019 05:00:00 16,6 0,7 7 4 13 7 NW 1022,9 - 0,0
24.03.2019 04:00:00 16,8 0,4 9 5 19 10 W 1022,7 - 0,0
24.03.2019 03:00:00 16,0 0,1 11 6 19 10 NW 1022,9 - 0,0
24.03.2019 02:00:00 16,4 0,5 8 4 21 11 N 1023,1 - 0,0
24.03.2019 01:00:00 17,2 0,3 13 7 22 12 N 1023,2 - 0,0
24.03.2019 00:00:00 17,9 -0,4 12 7 17 9 N 1023,4 - 0,0
23.03.2019 23:00:00 18,3 0,4 6 4 15 8 NNE 1023,5 - 0,0
23.03.2019 22:00:00 18,2 0,8 5 3 15 8 NNE 1023,5 - 0,0
23.03.2019 21:00:00 18,6 0,7 4 2 10 5 SSW 1023,1 - 0,0
23.03.2019 20:00:00 18,6 2,0 2 1 15 8 W 1022,6 - 0,0
23.03.2019 19:00:00 20,1 0,0 13 7 24 13 WSW 1021,8 - 0,0
23.03.2019 18:00:00 20,5 0,3 15 8 24 13 SW 1021,6 - 0,0
23.03.2019 17:00:00 20,8 1,1 11 6 24 13 SSW 1022,0 - 0,0
23.03.2019 16:00:00 21,7 1,3 13 7 30 16 SSW 1022,1 15 0,0
23.03.2019 15:00:00 22,1 -1,3 12 6 25 14 SSW 1022,6 - 0,0
23.03.2019 14:00:00 22,4 2,5 13 7 23 12 SSW 1023,2 - 0,0
23.03.2019 13:00:00 24,1 -1,0 6 4 23 13 SSW 1024,1 15 0,0
23.03.2019 12:00:00 21,5 2,7 13 7 24 13 WSW 1024,9 - 0,0
23.03.2019 11:00:00 20,5 3,2 3 2 21 11 N 1025,4 - 0,0
23.03.2019 10:00:00 18,2 1,2 14 8 28 15 WNW 1025,7 15 0,0
23.03.2019 09:00:00 16,9 2,1 4 2 15 8 NNW 1025,5 - 0,0
23.03.2019 08:00:00 14,2 5,0 3 1 17 9 E 1025,7 - 0,0
23.03.2019 07:00:00 15,2 -2,7 11 6 15 8 NNW 1025,5 - 0,0
23.03.2019 06:00:00 13,9 -2,1 2 1 6 3 S 1025,2 - 0,0
23.03.2019 05:00:00 13,3 0,3 4 2 13 7 N 1025,3 - 0,0
23.03.2019 04:00:00 13,7 0,0 6 3 10 5 N 1025,7 - 0,0
23.03.2019 03:00:00 13,3 -1,5 3 2 13 7 NNE 1025,9 - 0,0
23.03.2019 02:00:00 13,5 1,8 6 3 24 13 NNE 1026,2 - 0,0
23.03.2019 01:00:00 17,9 -1,4 16 9 28 15 NW 1026,0 - 0,0
23.03.2019 00:00:00 17,3 -2,9 21 11 31 17 WNW 1026,2 - 0,0
22.03.2019 23:00:00 16,7 -6,4 20 11 35 19 W 1026,3 - 0,0
22.03.2019 22:00:00 16,9 -7,6 22 12 35 19 WNW 1026,3 - 0,0
22.03.2019 21:00:00 16,1 -4,5 21 11 34 18 W 1026,3 - 0,0
22.03.2019 20:00:00 15,9 -2,6 19 11 27 15 WSW 1026,1 - 0,0
22.03.2019 19:00:00 16,4 -0,8 17 9 23 13 WSW 1025,8 - 0,0
22.03.2019 18:00:00 17,0 -0,7 16 9 29 16 SW 1025,8 - 0,0
22.03.2019 17:00:00 18,2 -0,6 12 6 21 12 SW 1025,9 - 0,0
22.03.2019 16:00:00 19,3 1,7 11 6 22 12 SW 1026,6 20 0,0
22.03.2019 15:00:00 17,5 4,1 9 5 19 10 SW 1027,2 - 0,0
22.03.2019 14:00:00 16,3 3,7 10 5 21 12 SSW 1028,0 - 0,0
22.03.2019 13:00:00 15,8 5,1 11 6 21 11 SSW 1028,6 - 0,0
22.03.2019 12:00:00 17,1 3,4 8 4 14 8 SSE 1028,8 - 0,0
22.03.2019 11:00:00 17,0 1,8 4 2 9 5 ESE 1028,8 - 0,0
22.03.2019 10:00:00 16,1 -0,2 5 3 16 8 NNE 1028,9 20 0,0
22.03.2019 09:00:00 14,5 -1,6 7 4 15 8 N 1028,9 - 0,0
22.03.2019 08:00:00 13,1 -1,7 7 4 16 9 NNE 1028,9 - 0,0
22.03.2019 07:00:00 10,5 -0,6 10 5 22 12 N 1028,5 - 0,0
22.03.2019 06:00:00 10,3 0,0 13 7 21 11 N 1027,9 - 0,0
22.03.2019 05:00:00 11,5 0,0 12 6 20 11 NNE 1027,8 - 0,0
22.03.2019 04:00:00 11,4 1,1 11 6 16 9 N 1027,8 20 0,0
22.03.2019 03:00:00 11,3 1,2 10 5 13 7 N 1027,9 - 0,0
22.03.2019 02:00:00 11,3 0,4 6 3 12 7 NNE 1028,4 - 0,0
22.03.2019 01:00:00 11,1 0,8 7 4 14 8 N 1028,5 - 0,0
22.03.2019 00:00:00 10,7 1,0 10 5 16 8 NNW 1028,6 - 0,0
21.03.2019 23:00:00 12,0 -1,9 13 7 18 10 W 1028,3 - 0,0
21.03.2019 22:00:00 11,7 1,6 12 6 22 12 WSW 1028,1 - 0,0
21.03.2019 21:00:00 11,6 3,1 13 7 21 11 W 1027,8 - 0,0
21.03.2019 20:00:00 12,2 4,2 16 9 22 12 W 1027,4 - 0,0
21.03.2019 19:00:00 12,4 3,3 14 8 17 9 W 1027,1 - 0,0
21.03.2019 18:00:00 13,0 1,3 9 5 18 10 SW 1026,9 - 0,0
21.03.2019 17:00:00 13,3 3,6 11 6 19 10 SSW 1027,1 - 0,0
21.03.2019 16:00:00 14,1 3,8 12 6 22 12 SSW 1027,2 - 0,0
21.03.2019 15:00:00 14,2 3,0 11 6 22 12 SSW 1027,7 - 0,0
21.03.2019 14:00:00 14,8 2,0 10 6 22 12 S 1028,3 - 0,0
21.03.2019 13:00:00 14,9 0,3 8 5 17 9 S 1028,8 25 0,0
21.03.2019 12:00:00 14,2 1,1 8 5 15 8 S 1029,3 - 0,0
21.03.2019 11:00:00 13,0 0,7 8 5 16 9 S 1029,6 - 0,0
21.03.2019 10:00:00 13,1 -1,3 7 4 15 8 S 1029,6 - 0,0
21.03.2019 09:00:00 12,3 -4,8 8 4 15 8 N 1029,4 - 0,0
21.03.2019 08:00:00 10,1 -5,1 11 6 26 14 N 1029,4 - 0,0
21.03.2019 07:00:00 8,3 -4,9 19 11 28 15 N 1028,9 - 0,0
21.03.2019 06:00:00 8,9 -4,7 16 9 24 13 N 1028,4 - 0,0
21.03.2019 05:00:00 9,1 -4,5 14 8 26 14 N 1028,4 - 0,0
21.03.2019 04:00:00 9,7 -4,0 10 5 28 15 N 1028,4 20 0,0
21.03.2019 03:00:00 10,7 -5,8 13 7 28 15 NNW 1028,6 - 0,0
21.03.2019 02:00:00 11,1 -5,4 14 7 25 14 NNW 1028,8 - 0,0
21.03.2019 01:00:00 11,0 -2,1 12 7 18 10 NNW 1029,0 - 0,0
21.03.2019 00:00:00 11,1 -2,4 5 3 15 8 N 1029,2 - 0,0
20.03.2019 23:00:00 11,5 -0,7 4 2 11 6 NE 1029,3 - 0,0
20.03.2019 22:00:00 11,8 3,8 5 3 11 6 E 1029,2 - 0,0
20.03.2019 21:00:00 12,1 5,0 5 3 14 8 ENE 1028,9 - 0,0
20.03.2019 20:00:00 12,1 3,1 4 2 8 5 E 1028,0 - 0,0
20.03.2019 19:00:00 12,9 -1,1 4 2 14 7 SSW 1027,3 - 0,0
20.03.2019 18:00:00 13,6 3,9 9 5 18 10 WSW 1026,7 - 0,0
20.03.2019 17:00:00 13,5 4,6 13 7 27 15 SSW 1026,4 - 0,0
20.03.2019 16:00:00 14,1 2,3 18 10 33 18 S 1026,8 - 0,0
20.03.2019 15:00:00 14,0 0,6 19 10 31 17 S 1027,2 - 0,0
20.03.2019 14:00:00 14,4 -0,1 18 10 31 17 S 1027,9 - 0,0
20.03.2019 13:00:00 14,9 -0,8 18 10 28 15 S 1028,8 - 0,0
20.03.2019 12:00:00 15,3 -3,6 13 7 24 13 S 1029,1 - 0,0
20.03.2019 11:00:00 14,0 -5,8 9 5 25 14 N 1029,2 - 0,0
20.03.2019 10:00:00 12,2 -4,0 10 5 29 16 N 1029,4 - 0,0
20.03.2019 09:00:00 9,4 -2,9 20 11 37 20 NW 1029,3 - 0,0
20.03.2019 08:00:00 7,9 -3,0 24 13 46 25 NW 1028,8 - 0,0

tt = temperature
td = dewpoint
ff = wind speed
fx = gusts
dd = wind direction
ppp = reduced air pressure
vv = visibility
rr = precipitation

Next stations